Regional Weather Roundup
Issued by NWS Albany, NY

Home | Current Version | Previous Version | Text Only | Print | Product List | Glossary On
Versions: 1 2 3 4 5 6 7 8 9 10 11 12 13 14 15 16 17 18 19 20 21 22 23 24 25 26 27 28 29 30 31 32 33 34 35 36 37 38 39 40 41 42 43 44 45 46 47 48 49 50
000
ASUS41 KALY 280910
RWRALY

NEW YORK STATE HOURLY WEATHER ROUNDUP
NATIONAL WEATHER SERVICE ALBANY NY
500 AM EDT FRI AUG 28 2015

NOTE: "FAIR" INDICATES FEW OR NO CLOUDS BELOW 12,000 FEET WITH NO
SIGNIFICANT WEATHER AND/OR NO OBSTRUCTIONS TO VISIBILITY.

NYZ032-033-038>043-046>054-057>066-NYZ062>081-281000-
EAST


CITY           SKY/WX    TMP DP  RH WIND       PRES   REMARKS
ALBANY         MOCLDY    58  54  86 CALM      30.15S
GLENS FALLS    CLEAR     51  48  89 CALM      30.14S
POUGHKEEPSIE   CLEAR     54  51  90 CALM      30.14S
NEWBURGH       PTCLDY    59  57  94 W7        30.15
MONTGOMERY     CLEAR     52  50  93 CALM      30.15S
WHITE PLAINS   CLEAR     60  54  80 NW6       30.13S
ISLIP          MOCLDY    65  55  70 N6        30.10S
NEW YORK CITY  PTCLDY    67  55  65 W6        30.13R
CENTRAL PARK   CLEAR     66  53  63 NW3       30.16S
$$

NYZ005>009-017-018-044>046-055-056-281000-
CENTRAL


CITY           SKY/WX    TMP DP  RH WIND       PRES   REMARKS
FULTON         CLOUDY    60  55  83 CALM      30.16R
SYRACUSE       MOCLDY    56  54  93 CALM      30.16R
ROME           MOCLDY    50  49  96 CALM      30.19R
ELMIRA         CLOUDY    53  53 100 SW3       30.19S
BINGHAMTON     PTCLDY    52  52 100 W3        30.19R FOG
MONTICELLO     CLEAR     52  50  93 NW5       30.19S
$$

NYZ026>034-041>043-281000-
NORTH


CITY           SKY/WX    TMP DP  RH WIND       PRES   REMARKS
WATERTOWN      CLOUDY    53  52  96 CALM      30.15S
FORT DRUM      NOT AVBL
MASSENA        CLOUDY    57  55  93 W3        30.16R
SARANAC LAKE   PTCLDY    50  49  96 CALM      30.16S FOG
PLATTSBURGH    CLEAR     56  54  93 CALM      30.13S
$$

NYZ001>004-010>016-019>021-281000-
WEST


CITY           SKY/WX    TMP DP  RH WIND       PRES   REMARKS
NIAGARA FALLS  CLEAR     52  49  89 CALM      30.16S
BUFFALO        MOCLDY    55  52  89 SE5       30.17R
DUNKIRK        CLEAR     57  54  89 S6        30.17R
JAMESTOWN      MOCLDY    50  48  93 S3        30.19R VSB 1/4
WELLSVILLE     FOG       46  44  93 CALM      30.21F VSB<1/4
ROCHESTER      PTCLDY    52  50  93 CALM      30.17F
PENN YAN       CLOUDY    55  54  96 SW3       30.19S
$$

             KEY
       WCI = WIND CHILL INDEX
       VSB = VISIBILITY
       HX  = HEAT INDEX
$$


USA.gov is the U.S. government's official web portal to all federal, state and local government web resources and services.